Flag for Germany Weather past 2 weeks in Duisburg, North Rhine-Westphalia, Germany

Now
64 °F

Scattered clouds.


Feels Like: 64 °F
Forecast: 47 / 64 °F
Wind: 18 mph from Southwest

Location: Duesseldorf

Current Time: May 28, 2015 at 2:33:28 PM

Latest Report: May 28, 2015 at 1:50 PM


Visibility: N/A

Pressure: 29.92 "Hg

Humidity: 49%

Dew point: 45 °F

Location of DuisburgLocation

Historic Weather in Duisburg — Graph

°F

Duisburg temperature yesterday

Maximum temperature yesterday: 64 °F (at 5:20 PM)
Minimum temperature yesterday: 48 °F (at 12:20 AM)
Average temperature yesterday: 57 °F

Past Weeks' High & Low Weather Summary

 TemperatureHumidityPressure
High70 °F (May 18, 2:50 PM)100% (May 16, 3:50 PM)30.33 "Hg (May 16, 3:50 PM)
Low37 °F (May 21, 4:20 AM)32% (May 13, 6:20 PM)29.65 "Hg (May 18, 6:20 PM)
Average55 °F65%30.06 "Hg
* Reported May 13 1:20 PM — May 28 1:20 PM, Duisburg, Weather by CustomWeather, © 2015

Note: Actual official high and low records may vary slightly from our data, if they occured in-between our weather recording intervals... More about our weather records

Advertising

Duisburg weather history for previous 24 hours

 ConditionsComfort  
Time TempWeatherWind HumidityBarometerVisibility
1:20 PM
Thu, May 28
64 °FPartly sunny.20 mph46%29.92 "HgN/A
12:50 PM64 °FPartly sunny.18 mph46%29.92 "HgN/A
12:20 PM64 °FPartly sunny.18 mph49%29.92 "HgN/A
11:50 AM63 °FPartly sunny.17 mph52%29.92 "HgN/A
11:20 AM63 °FPartly sunny.18 mph52%29.92 "HgN/A
10:50 AM63 °FPartly sunny.18 mph56%29.95 "HgN/A
10:20 AM61 °FBroken clouds.15 mph59%29.95 "HgN/A
9:50 AM61 °FPartly sunny.14 mph55%29.95 "HgN/A
9:20 AM61 °FPartly sunny.14 mph59%29.95 "HgN/A
8:50 AM59 °FSunny.14 mph63%29.95 "Hg10 mi
8:20 AM59 °FPartly sunny.14 mph63%29.95 "HgN/A
7:50 AM59 °FPartly sunny.12 mph59%29.95 "HgN/A
7:20 AM57 °FPartly sunny.12 mph63%29.95 "HgN/A
6:50 AM57 °FBroken clouds.12 mph63%29.95 "HgN/A
6:20 AM57 °FPartly cloudy.13 mph63%29.95 "HgN/A
5:50 AM55 °FPassing clouds.13 mph63%29.98 "HgN/A
5:20 AM55 °FPartly cloudy.10 mph63%29.98 "HgN/A
4:50 AM55 °FPartly cloudy.13 mph63%29.98 "HgN/A
4:20 AM55 °FClear.13 mph63%29.98 "Hg10 mi
3:50 AM55 °FClear.10 mph63%29.98 "Hg10 mi
3:20 AM55 °FClear.12 mph63%30.01 "Hg10 mi
2:50 AM57 °FClear.13 mph55%30.01 "Hg10 mi
2:20 AM57 °FClear.10 mph55%30.01 "Hg10 mi
1:50 AM57 °FClear.14 mph55%30.04 "Hg10 mi
1:20 AM57 °FClear.12 mph55%30.04 "Hg10 mi
12:50 AM57 °FClear.13 mph55%30.04 "Hg10 mi
12:20 AM57 °FClear.12 mph55%30.04 "Hg10 mi
11:50 PM
Wed, May 27
57 °FClear.13 mph55%30.07 "Hg10 mi
11:20 PM57 °FClear.10 mph51%30.07 "Hg10 mi
10:50 PM59 °FClear.9 mph48%30.07 "Hg10 mi
10:20 PM59 °FSunny.9 mph48%30.07 "Hg10 mi
9:50 PM59 °FSunny.8 mph48%30.09 "Hg10 mi
9:20 PM61 °FSunny.12 mph45%30.09 "Hg10 mi
8:50 PM61 °FSunny.13 mph42%30.09 "Hg10 mi
8:20 PM63 °FSunny.13 mph42%30.09 "Hg10 mi
7:50 PM63 °FSunny.10 mph45%30.12 "Hg10 mi
7:20 PM63 °FSunny.9 mph42%30.12 "Hg10 mi
6:50 PM64 °FPassing clouds.8 mph37%30.12 "HgN/A
6:20 PM64 °FSunny.7 mph37%30.15 "Hg10 mi
5:50 PM64 °FSunny.3 mph40%30.15 "Hg10 mi
5:20 PM64 °FSunny.3 mph37%30.18 "Hg10 mi
4:50 PM63 °FSunny.5 mph42%30.18 "Hg10 mi
4:20 PM63 °FSunny.3 mph42%30.18 "Hg10 mi
3:50 PM63 °FSunny.6 mph42%30.18 "Hg10 mi
3:20 PM63 °FSunny.8 mph42%30.21 "Hg10 mi
2:50 PM63 °FSunny.7 mph42%30.21 "Hg10 mi
2:20 PM61 °FBroken clouds.6 mph45%30.21 "HgN/A
Weather by CustomWeather, © 2015

See weather overviewHow to use our weather pages